DW8824 Weather Reports


Display with metric or nautical units.
time (UTC)temp
F
wind
direction
speed
MPH
gust
MPH
rain 1hr
in
rain 24hr
in
rain mn
in
humidity
%
barometer
mb
20190220152401 82 66 1.0 7.0 0.00 0.00 0.00 87 1018.3
20190220151901 82 61 2.0 3.0 0.00 0.00 0.00 86 1018.3
20190220151402 82 56 2.0 5.0 0.00 0.00 0.00 86 1018.2
20190220150902 82 47 0.0 0.0 0.00 0.00 0.00 86 1018.0
20190220150401 82 49 1.0 3.0 0.00 0.00 0.00 86 1018.0
20190220145901 82 60 2.0 3.0 0.00 0.00 0.00 86 1018.0
20190220145401 82 50 3.0 9.0 0.00 0.00 0.00 85 1017.8
20190220144903 82 43 1.0 5.0 0.00 0.00 0.00 86 1017.8
20190220144402 82 53 3.0 8.0 0.00 0.00 0.00 85 1017.7
20190220143901 82 65 5.0 9.0 0.00 0.00 0.00 85 1017.6
20190220143401 83 40 4.0 7.0 0.00 0.00 0.00 85 1017.6
20190220142901 83 40 2.0 3.0 0.00 0.00 0.00 85 1017.6
20190220142401 83 54 2.0 5.0 0.00 0.00 0.00 85 1017.5
20190220141902 83 59 3.0 7.0 0.00 0.00 0.00 85 1017.4
20190220141401 83 64 2.0 5.0 0.00 0.00 0.00 84 1017.4
20190220140902 83 30 3.0 8.0 0.00 0.00 0.00 84 1017.4
20190220140401 83 28 3.0 10.0 0.00 0.00 0.00 84 1017.4
20190220135901 83 50 5.0 9.0 0.00 0.00 0.00 84 1017.2
20190220135401 83 34 3.0 9.0 0.00 0.00 0.00 84 1017.2
20190220134902 83 49 3.0 7.0 0.00 0.00 0.00 84 1017.1
20190220134401 83 56 4.0 9.0 0.00 0.00 0.00 84 1017.0
20190220133901 83 44 5.0 7.0 0.00 0.00 0.00 84 1017.0
20190220133402 83 27 2.0 6.0 0.00 0.00 0.00 84 1017.0
20190220132901 83 47 3.0 9.0 0.00 0.00 0.00 84 1016.9
20190220132401 83 41 4.0 7.0 0.00 0.00 0.00 83 1016.9
20190220131902 84 70 3.0 8.0 0.00 0.00 0.00 83 1016.7
20190220131401 84 9 3.0 9.0 0.00 0.00 0.00 83 1016.7
20190220130902 84 44 3.0 8.0 0.00 0.00 0.00 83 1016.7
20190220130401 84 53 4.0 10.0 0.00 0.00 0.00 83 1016.6
20190220125902 84 59 5.0 9.0 0.00 0.00 0.00 82 1016.7
20190220125401 84 72 4.0 9.0 0.00 0.00 0.00 83 1016.6
20190220124901 84 66 3.0 10.0 0.00 0.00 0.00 83 1016.6
20190220124401 84 65 3.0 12.0 0.00 0.00 0.00 82 1016.6
20190220123902 84 43 6.0 12.0 0.00 0.00 0.00 82 1016.7
20190220123401 84 53 3.0 10.0 0.00 0.00 0.00 83 1016.6
20190220122902 84 61 6.0 10.0 0.00 0.00 0.00 82 1016.6
20190220122401 84 36 7.0 13.0 0.00 0.00 0.00 81 1016.5
20190220121902 85 72 5.0 10.0 0.00 0.00 0.00 81 1016.5
20190220121402 85 44 3.0 9.0 0.00 0.00 0.00 82 1016.4
20190220120901 85 65 6.0 12.0 0.00 0.00 0.00 81 1016.4
20190220120402 85 51 6.0 12.0 0.00 0.00 0.00 82 1016.4
20190220115901 85 42 7.0 14.0 0.00 0.00 0.00 82 1016.4
20190220115401 85 51 6.0 12.0 0.00 0.00 0.00 82 1016.4
20190220114902 85 36 7.0 15.0 0.00 0.00 0.00 81 1016.4
20190220114401 85 29 7.0 12.0 0.00 0.00 0.00 82 1016.4
20190220113901 85 52 6.0 12.0 0.00 0.00 0.00 81 1016.3
20190220113402 85 14 6.0 13.0 0.00 0.00 0.00 81 1016.2
20190220112901 84 54 5.0 10.0 0.00 0.00 0.00 81 1016.2
20190220112401 84 49 6.0 12.0 0.00 0.00 0.00 81 1016.3
20190220111902 84 80 5.0 12.0 0.00 0.00 0.00 81 1016.2
20190220111401 84 72 6.0 12.0 0.00 0.00 0.00 81 1016.2
20190220110902 84 38 5.0 14.0 0.00 0.00 0.00 83 1016.1
20190220110401 84 61 7.0 12.0 0.00 0.00 0.00 82 1016.1
20190220105902 84 69 7.0 14.0 0.00 0.00 0.00 81 1016.2
20190220105401 84 59 6.0 13.0 0.00 0.00 0.00 82 1016.1
20190220104901 85 53 5.0 12.0 0.00 0.00 0.00 82 1016.1
20190220104403 85 35 7.0 13.0 0.00 0.00 0.00 81 1016.1
20190220103903 85 59 6.0 14.0 0.00 0.00 0.00 82 1016.1
20190220103401 85 69 6.0 13.0 0.00 0.00 0.00 82 1016.2
20190220102901 84 51 7.0 12.0 0.00 0.00 0.00 81 1016.3
20190220102401 85 69 7.0 16.0 0.00 0.00 0.00 81 1016.2
20190220101902 85 56 9.0 15.0 0.00 0.00 0.00 80 1016.3
20190220101403 85 41 7.0 12.0 0.00 0.00 0.00 81 1016.3
20190220100901 85 48 7.0 16.0 0.00 0.00 0.00 82 1016.5
20190220100401 85 46 7.0 13.0 0.00 0.00 0.00 81 1016.4
20190220095902 85 55 7.0 14.0 0.00 0.00 0.00 81 1016.4
20190220095401 85 37 7.0 16.0 0.00 0.00 0.00 81 1016.5
20190220094901 85 59 7.0 13.0 0.00 0.00 0.00 80 1016.5
20190220094401 85 48 5.0 13.0 0.00 0.00 0.00 81 1016.5
20190220093902 85 52 8.0 14.0 0.00 0.00 0.00 80 1016.6
20190220093401 85 66 8.0 14.0 0.00 0.00 0.00 80 1016.6
20190220092902 85 42 7.0 15.0 0.00 0.00 0.00 80 1016.7
20190220092402 85 55 9.0 14.0 0.00 0.00 0.00 80 1016.8
20190220091901 86 42 8.0 16.0 0.00 0.00 0.00 79 1016.9
20190220091401 86 36 6.0 13.0 0.00 0.00 0.00 81 1017.1
20190220090902 85 38 7.0 13.0 0.00 0.00 0.00 81 1017.3
20190220090402 85 68 9.0 15.0 0.00 0.00 0.00 80 1017.4
20190220085901 85 66 7.0 14.0 0.00 0.00 0.00 81 1017.5
20190220085401 85 69 8.0 13.0 0.00 0.00 0.00 80 1017.6
20190220084902 86 55 7.0 14.0 0.00 0.00 0.00 80 1017.6
20190220084401 86 47 6.0 12.0 0.00 0.00 0.00 81 1017.7
20190220083902 85 46 8.0 13.0 0.00 0.00 0.00 80 1017.7
20190220083401 85 49 7.0 14.0 0.00 0.00 0.00 81 1017.6
20190220082902 85 47 6.0 14.0 0.00 0.00 0.00 82 1017.6
20190220082402 85 65 7.0 13.0 0.00 0.00 0.00 81 1017.6
20190220081901 85 73 5.0 12.0 0.00 0.00 0.00 82 1017.7
20190220081401 85 65 9.0 13.0 0.00 0.00 0.00 81 1017.7
20190220080901 85 67 7.0 15.0 0.00 0.00 0.00 81 1017.7
20190220080401 85 44 11.0 20.0 0.00 0.00 0.00 80 1017.7
20190220075901 85 45 8.0 15.0 0.00 0.00 0.00 81 1017.7
20190220075402 85 71 7.0 13.0 0.00 0.00 0.00 80 1017.7
20190220074902 85 62 8.0 12.0 0.00 0.02 0.00 80 1017.7
20190220074401 85 83 7.0 12.0 0.00 0.06 0.00 81 1017.6
20190220073902 85 27 7.0 14.0 0.00 0.06 0.00 80 1017.7
20190220073402 85 60 7.0 20.0 0.00 0.06 0.00 80 1017.7
20190220072902 86 53 9.0 14.0 0.00 0.06 0.00 79 1017.8
20190220072401 86 36 7.0 13.0 0.00 0.06 0.00 80 1017.9
20190220071902 85 69 5.0 12.0 0.00 0.06 0.00 81 1018.0
20190220071402 85 38 10.0 15.0 0.00 0.06 0.00 80 1018.1
20190220070902 85 32 8.0 13.0 0.00 0.06 0.00 81 1018.1
20190220070401 85 42 8.0 16.0 0.00 0.06 0.00 80 1018.1
20190220065902 85 67 7.0 13.0 0.00 0.06 0.00 80 1018.2
20190220065401 85 75 9.0 14.0 0.00 0.06 0.00 80 1018.1
20190220064901 85 41 7.0 14.0 0.00 0.06 0.00 81 1018.1
20190220064401 85 71 6.0 13.0 0.00 0.06 0.00 80 1018.1
20190220063902 85 36 7.0 13.0 0.00 0.06 0.00 80 1018.1
20190220063402 85 56 8.0 13.0 0.00 0.06 0.00 79 1018.1
20190220062902 85 42 6.0 12.0 0.00 0.06 0.00 80 1018.1
20190220062401 85 46 7.0 13.0 0.00 0.06 0.00 80 1018.1
20190220061902 85 83 7.0 12.0 0.00 0.06 0.00 81 1018.2
20190220061401 85 51 9.0 13.0 0.00 0.06 0.00 80 1018.3
20190220060902 85 67 7.0 12.0 0.00 0.06 0.00 80 1018.3
20190220060401 85 64 7.0 13.0 0.00 0.06 0.00 81 1018.3
20190220055902 85 46 6.0 13.0 0.00 0.06 0.00 81 1018.3
20190220055402 85 52 5.0 12.0 0.00 0.06 0.00 83 1018.3
20190220054902 85 56 7.0 14.0 0.00 0.06 0.00 81 1018.2
20190220054402 84 37 6.0 13.0 0.00 0.06 0.00 82 1018.2
20190220053901 84 70 8.0 13.0 0.00 0.06 0.00 82 1018.1
20190220053401 84 57 7.0 13.0 0.00 0.06 0.00 83 1018.1
20190220052902 84 63 9.0 16.0 0.00 0.06 0.00 83 1018.0
20190220052401 84 76 4.0 14.0 0.00 0.06 0.00 84 1018.0
20190220051902 84 49 11.0 16.0 0.00 0.06 0.00 83 1018.1
20190220050902 84 36 6.0 14.0 0.00 0.06 0.00 84 1018.0
20190220050402 84 57 8.0 16.0 0.00 0.06 0.00 84 1017.9
20190220045902 84 57 5.0 15.0 0.00 0.06 0.00 84 1017.9
20190220045401 84 60 8.0 16.0 0.00 0.06 0.00 84 1017.9
20190220044902 83 50 10.0 17.0 0.00 0.06 0.00 84 1017.9
20190220044401 83 64 10.0 17.0 0.00 0.06 0.00 84 1017.9
20190220043901 84 57 9.0 16.0 0.00 0.06 0.00 84 1017.8
20190220043401 84 61 8.0 15.0 0.00 0.06 0.00 84 1017.7
20190220042901 84 58 8.0 13.0 0.00 0.06 0.00 84 1017.8
20190220042404 84 63 9.0 14.0 0.00 0.06 0.00 84 1017.9
20190220041902 84 40 5.0 12.0 0.00 0.06 0.00 85 1017.8
20190220041402 83 49 5.0 12.0 0.00 0.06 0.00 85 1017.9
20190220040902 83 50 7.0 15.0 0.00 0.06 0.00 85 1017.8
20190220040401 83 71 3.0 7.0 0.00 0.06 0.00 86 1017.8
20190220035903 83 57 7.0 12.0 0.00 0.06 0.00 86 1017.7
20190220035402 83 58 7.0 13.0 0.00 0.06 0.00 86 1017.7
20190220034902 82 76 7.0 12.0 0.00 0.06 0.00 87 1017.6
20190220034402 82 71 4.0 9.0 0.00 0.06 0.00 87 1017.5
20190220033901 82 53 3.0 8.0 0.00 0.06 0.00 87 1017.5
20190220033402 82 86 1.0 5.0 0.00 0.06 0.00 87 1017.4
20190220032902 82 57 3.0 9.0 0.00 0.06 0.00 87 1017.3
20190220032405 82 54 6.0 12.0 0.00 0.06 0.00 87 1017.3
20190220031909 82 60 3.0 10.0 0.00 0.06 0.00 87 1017.3
20190220031401 82 65 5.0 9.0 0.00 0.06 0.00 87 1017.1
20190220030902 81 56 2.0 9.0 0.00 0.06 0.00 87 1017.0
20190220030402 81 45 2.0 9.0 0.00 0.06 0.00 87 1016.9
20190220025902 81 47 3.0 8.0 0.00 0.06 0.00 87 1016.8
20190220025409 81 71 3.0 7.0 0.00 0.06 0.00 87 1016.8
20190220024903 81 64 0.0 0.0 0.00 0.06 0.00 87 1016.6
20190220024401 80 64 0.0 1.0 0.00 0.06 0.00 87 1016.6
20190220023902 80 64 0.0 0.0 0.00 0.06 0.00 87 1016.5
20190220023401 80 65 0.0 0.0 0.00 0.06 0.00 87 1016.4
20190220022902 80 63 1.0 5.0 0.00 0.06 0.00 87 1016.4
20190220022402 80 51 2.0 8.0 0.00 0.06 0.00 87 1016.4
20190220021902 80 57 3.0 6.0 0.00 0.06 0.00 87 1016.4
20190220021402 80 64 3.0 8.0 0.00 0.06 0.00 87 1016.3
20190220020901 80 54 3.0 8.0 0.00 0.06 0.00 87 1016.3
20190220020402 80 74 3.0 7.0 0.00 0.06 0.00 87 1016.3
20190220015902 80 77 2.0 6.0 0.00 0.06 0.00 87 1016.3
20190220015402 80 64 3.0 9.0 0.00 0.06 0.00 87 1016.2
20190220014902 80 60 2.0 8.0 0.00 0.06 0.00 87 1016.1
20190220014402 80 68 3.0 5.0 0.00 0.06 0.00 87 1016.1
20190220013902 80 70 2.0 8.0 0.00 0.06 0.00 86 1016.0
20190220013403 80 71 0.0 9.0 0.00 0.06 0.00 86 1015.9
20190220012901 80 72 4.0 10.0 0.00 0.06 0.00 86 1015.9
20190220012401 80 71 3.0 7.0 0.00 0.06 0.00 86 1015.9
20190220011905 80 66 4.0 9.0 0.00 0.06 0.00 86 1015.8
20190220011402 80 62 3.0 7.0 0.00 0.06 0.00 86 1015.8
20190220010902 80 62 2.0 6.0 0.00 0.06 0.00 85 1015.8
20190220010401 80 70 2.0 8.0 0.00 0.06 0.00 86 1015.8
20190220005901 80 74 2.0 6.0 0.00 0.06 0.00 85 1015.7
20190220005401 80 69 5.0 9.0 0.00 0.06 0.00 85 1015.8
20190220004902 80 74 5.0 9.0 0.00 0.06 0.00 84 1015.9
20190220004402 80 60 3.0 10.0 0.00 0.06 0.00 83 1015.8
20190220003902 80 65 5.0 9.0 0.00 0.06 0.00 83 1015.8
20190220003402 79 81 1.0 5.0 0.00 0.06 0.00 84 1015.8
20190220002902 79 91 0.0 0.0 0.00 0.06 0.00 85 1015.8
20190220002402 79 91 1.0 3.0 0.00 0.06 0.00 86 1015.8
20190220001902 79 91 1.0 3.0 0.00 0.06 0.00 86 1015.8
20190220001402 79 91 1.0 3.0 0.00 0.06 0.00 87 1015.8
20190220000902 79 91 1.0 3.0 0.00 0.06 0.00 87 1015.9
20190220000402 79 86 2.0 5.0 0.00 0.06 0.00 87 1015.9
20190219235903 79 86 2.0 7.0 0.00 0.06 0.00 86 1016.0
20190219235401 79 63 3.0 9.0 0.00 0.06 0.00 86 1016.0
20190219234902 79 56 5.0 10.0 0.00 0.06 0.00 85 1016.1
20190219234401 79 69 1.0 8.0 0.00 0.06 0.00 85 1016.0
20190219233902 79 70 0.0 0.0 0.00 0.06 0.00 85 1016.0
20190219233402 79 70 1.0 3.0 0.00 0.06 0.00 86 1016.0
20190219232902 79 70 1.0 5.0 0.00 0.06 0.00 86 1016.1
20190219232402 79 70 1.0 6.0 0.00 0.06 0.00 86 1016.0
20190219231902 79 74 3.0 7.0 0.00 0.06 0.00 85 1016.0
20190219231402 80 67 2.0 5.0 0.00 0.06 0.00 85 1016.1
20190219230903 80 80 0.0 0.0 0.00 0.06 0.00 85 1016.1
20190219230402 80 80 0.0 2.0 0.00 0.06 0.00 86 1015.9
20190219225902 80 80 1.0 3.0 0.00 0.06 0.00 86 1015.8
20190219225401 80 78 1.0 3.0 0.00 0.06 0.00 86 1016.0
20190219224902 80 78 1.0 3.0 0.00 0.06 0.00 86 1016.0
20190219224402 80 77 2.0 6.0 0.00 0.06 0.00 86 1016.1
20190219223902 80 66 2.0 6.0 0.00 0.06 0.00 86 1016.1
20190219223401 80 71 2.0 8.0 0.00 0.06 0.00 86 1016.2
20190219222902 80 71 3.0 7.0 0.00 0.06 0.00 86 1016.3
20190219222402 80 67 3.0 5.0 0.00 0.06 0.00 86 1016.3
20190219221902 80 67 0.0 3.0 0.00 0.06 0.00 86 1016.4
20190219221402 80 68 3.0 5.0 0.00 0.06 0.00 86 1016.4
20190219220902 80 66 3.0 8.0 0.00 0.06 0.00 86 1016.4
20190219220402 80 68 3.0 5.0 0.00 0.06 0.00 86 1016.5
20190219215902 80 69 1.0 6.0 0.00 0.06 0.00 86 1016.5
20190219215402 80 62 2.0 5.0 0.00 0.06 0.00 87 1016.6
20190219214902 81 63 1.0 5.0 0.00 0.06 0.00 87 1016.7
20190219214401 81 53 3.0 8.0 0.00 0.06 0.00 87 1016.6
20190219213902 81 67 3.0 7.0 0.00 0.06 0.00 86 1016.6
20190219213402 81 58 3.0 8.0 0.00 0.06 0.00 86 1016.7
20190219212902 81 61 3.0 8.0 0.00 0.06 0.00 86 1016.7
20190219212402 81 61 5.0 9.0 0.00 0.06 0.00 87 1016.6
20190219211902 81 53 3.0 8.0 0.00 0.06 0.00 86 1016.7
20190219211402 81 61 3.0 9.0 0.00 0.06 0.00 86 1016.8
20190219210902 81 68 3.0 6.0 0.00 0.06 0.00 86 1016.7
20190219210402 81 70 5.0 10.0 0.00 0.06 0.00 86 1016.8
20190219205902 80 56 5.0 12.0 0.00 0.06 0.00 86 1016.8
20190219205401 80 58 4.0 9.0 0.00 0.06 0.00 85 1016.9
20190219204902 81 83 3.0 6.0 0.00 0.06 0.00 85 1016.9
20190219204402 81 61 3.0 8.0 0.00 0.06 0.00 85 1016.9
20190219203901 80 69 4.0 6.0 0.00 0.06 0.00 85 1016.9
20190219203402 80 65 3.0 7.0 0.00 0.06 0.00 85 1017.0
20190219202902 81 61 1.0 3.0 0.00 0.06 0.00 86 1017.1
20190219202401 81 61 3.0 7.0 0.00 0.06 0.00 86 1017.1
20190219201902 81 58 3.0 7.0 0.00 0.06 0.00 86 1017.1
20190219201402 81 62 5.0 9.0 0.00 0.06 0.00 86 1017.1
20190219200902 81 59 3.0 9.0 0.00 0.06 0.00 86 1017.2
20190219200401 81 67 4.0 7.0 0.00 0.06 0.00 86 1017.2
20190219195902 81 65 2.0 6.0 0.00 0.06 0.06 86 1017.2
20190219195403 81 69 3.0 8.0 0.00 0.06 0.06 86 1017.3
20190219194902 81 67 1.0 5.0 0.00 0.06 0.06 86 1017.3
20190219194402 81 62 1.0 6.0 0.00 0.06 0.06 86 1017.3
20190219193902 81 64 2.0 8.0 0.00 0.06 0.06 86 1017.3
20190219193402 81 58 3.0 6.0 0.00 0.06 0.06 86 1017.3
20190219192902 81 63 2.0 6.0 0.00 0.06 0.06 86 1017.4
20190219192402 81 55 4.0 8.0 0.00 0.06 0.06 86 1017.4
20190219191902 81 51 3.0 7.0 0.00 0.06 0.06 86 1017.5
20190219191402 81 55 2.0 5.0 0.00 0.06 0.06 86 1017.5
20190219190902 81 52 2.0 5.0 0.00 0.06 0.06 86 1017.5
20190219190401 81 73 2.0 3.0 0.00 0.06 0.06 87 1017.5
20190219185902 81 77 1.0 3.0 0.00 0.06 0.06 87 1017.5
20190219185402 81 69 0.0 3.0 0.00 0.06 0.06 87 1017.5
20190219184902 81 67 1.0 3.0 0.00 0.06 0.06 87 1017.5
20190219184402 81 66 3.0 5.0 0.00 0.06 0.06 87 1017.5
20190219183902 81 69 2.0 5.0 0.00 0.06 0.06 87 1017.5
20190219183402 81 69 2.0 5.0 0.00 0.06 0.06 87 1017.3
20190219182902 81 66 2.0 6.0 0.00 0.06 0.06 87 1017.3
20190219182402 81 64 4.0 9.0 0.00 0.06 0.06 87 1017.3
20190219181903 81 78 2.0 7.0 0.00 0.06 0.06 87 1017.3
20190219181401 81 71 2.0 6.0 0.00 0.06 0.06 87 1017.3
20190219180904 81 66 3.0 6.0 0.00 0.06 0.06 87 1017.2
20190219180402 81 66 2.0 6.0 0.00 0.06 0.06 87 1017.0
20190219175902 81 78 3.0 12.0 0.00 0.06 0.06 87 1016.9
20190219175402 81 63 3.0 8.0 0.00 0.06 0.06 87 1016.9
20190219174903 81 77 2.0 12.0 0.00 0.06 0.06 87 1016.9
20190219174401 81 65 3.0 6.0 0.00 0.06 0.06 87 1016.7
20190219173902 81 67 0.0 3.0 0.00 0.06 0.06 87 1016.6
20190219173402 81 67 2.0 5.0 0.00 0.06 0.06 87 1016.6
20190219172902 81 64 2.0 5.0 0.00 0.06 0.06 87 1016.4
20190219172401 81 63 3.0 5.0 0.00 0.06 0.06 87 1016.5
20190219171902 81 64 2.0 6.0 0.00 0.06 0.06 87 1016.5
20190219171402 81 61 1.0 5.0 0.00 0.06 0.06 87 1016.4
20190219170903 81 69 1.0 6.0 0.00 0.06 0.06 87 1016.4
20190219170402 81 61 2.0 7.0 0.00 0.06 0.06 87 1016.2
20190219165903 81 55 3.0 7.0 0.00 0.06 0.06 87 1016.1
20190219165401 81 57 2.0 6.0 0.00 0.06 0.06 87 1016.1
20190219164902 81 59 2.0 7.0 0.00 0.06 0.06 87 1016.0
20190219164402 81 66 2.0 6.0 0.00 0.06 0.06 87 1016.0
20190219163902 81 57 4.0 9.0 0.00 0.06 0.06 87 1015.9
20190219163402 81 64 2.0 8.0 0.00 0.06 0.06 87 1015.9
20190219162902 81 97 3.0 6.0 0.00 0.06 0.06 87 1015.8
20190219162402 81 61 3.0 5.0 0.00 0.06 0.06 87 1015.8
20190219161902 81 67 3.0 8.0 0.00 0.06 0.06 87 1015.7
20190219161402 81 71 2.0 5.0 0.00 0.06 0.06 87 1015.6
20190219160902 81 47 3.0 9.0 0.00 0.06 0.06 87 1015.5
20190219160402 81 66 3.0 7.0 0.00 0.06 0.06 87 1015.4
20190219155902 81 60 4.0 8.0 0.00 0.06 0.06 87 1015.3
20190219155402 81 54 3.0 8.0 0.00 0.06 0.06 87 1015.3
20190219154902 81 46 4.0 7.0 0.00 0.06 0.06 87 1015.3
20190219154402 82 57 2.0 8.0 0.00 0.06 0.06 87 1015.2
20190219153902 82 59 3.0 10.0 0.00 0.06 0.06 87 1015.2
20190219153401 82 73 3.0 9.0 0.00 0.06 0.06 87 1015.1
20190219152902 82 59 3.0 7.0 0.00 0.06 0.06 87 1015.2